Regional Weather Roundup
Issued by NWS

Home | Current Version | Previous Version | Graphics & Text | Print | Product List | Glossary On
Versions: 1 2 3 4 5 6 7 8 9 10 11 12 13 14 15 16 17 18 19 20 21 22 23 24 25 26 27 28 29 30 31 32 33 34 35 36 37 38 39 40 41 42 43 44 45 46 47 48 49 50
000
ASUS44 KMEG 301010
RWRTN
TENNESSEE HOURLY STATE WEATHER ROUNDUP
NATIONAL WEATHER SERVICE MEMPHIS TN
500 AM CDT MON MAY 30 2016

TNZ002-004-019-021-049-052-054-088>092-301100-
WEST TENNESSEE

CITY           SKY/WX    TMP DP  RH WIND       PRES   REMARKS
MEMPHIS INTL   CLOUDY    71  68  90 W3        30.05R
NWS MEMPHIS      N/A     67 N/A N/A MISG        N/A
JACKSON        CLOUDY    67  65  93 SW3       30.04R
DYERSBURG      CLEAR     66  64  94 CALM      30.04R
UNION CITY     CLEAR     66  64  94 CALM      30.03S
PARIS          CLEAR     63  61  94 CALM      30.05S
LEXINGTON      CLEAR     64  64 100 CALM      30.03S
$$

TNZ008-025-027-028-033-062-065-066-301100-
NORTH MIDDLE TENNESSEE

CITY           SKY/WX    TMP DP  RH WIND       PRES   REMARKS
NASHVILLE      PTCLDY    69  65  86 CALM      30.04S
CLARKSVILLE    CLEAR     65  62  90 CALM      30.04S
SMYRNA         CLOUDY    66  65  97 CALM      30.05S
COOKEVILLE     CLEAR     63  61  94 CALM      30.04S
CROSSVILLE     PTCLDY    63  59  87 CALM      30.09R
$$

TNZ061-075-076-078-094-096-097-301100-
SOUTH MIDDLE TENNESSEE

CITY           SKY/WX    TMP DP  RH WIND       PRES   REMARKS
FAYETTEVILLE   PTCLDY    66  64  94 CALM      30.04S
TULLAHOMA      CLEAR     64  64 100 CALM      30.06S
WINCHESTER     CLEAR     63  63 100 CALM      30.05S
MCMINNVILLE    CLEAR     64  64 100 CALM      30.05S
COLUMBIA       CLEAR    N/A N/A N/A CALM      30.03R
SHELBYVILLE    CLEAR     66  66 100 SE3       30.05S
$$

TNZ017-018-042-046-047-301100-
NORTHEAST TENNESSEE

CITY           SKY/WX    TMP DP  RH WIND       PRES   REMARKS
TRI CITIES     MOCLDY    58  56  93 CALM      30.07S
$$

TNZ012-013-036-069-073-074-301100-
CENTRAL EAST TENNESSEE

CITY           SKY/WX    TMP DP  RH WIND       PRES   REMARKS
KNOXVILLE      FOG       64  63  96 NE3       30.03F VSB 1/16
OAK RIDGE      FOG       63  62  97 CALM      30.06R VSB 3/4
GATLINBURG     CLEAR     61  59  94 CALM      30.05S
$$

TNZ083-085-099-301100-
SOUTHEAST TENNESSEE

CITY           SKY/WX    TMP DP  RH WIND       PRES   REMARKS
CHATTANOOGA    MOCLDY    71  64  78 CALM      30.03S
$$

SKY/WX REPORTED AS FAIR MEANS FEW OR NO CLOUDS BELOW
12 THOUSAND FEET.





USA.gov is the U.S. government's official web portal to all federal, state and local government web resources and services.